Regional Weather Roundup
Issued by NWS

Home | Current Version | Previous Version | Graphics & Text | Print | Product List | Glossary On
Versions: 1 2 3 4 5 6 7 8 9 10 11 12 13 14 15 16 17 18 19 20 21 22 23 24 25 26 27 28 29 30 31 32 33 34 35 36 37 38 39 40 41 42 43 44 45 46 47 48 49 50
000
ASUS43 KFSD 291510
RWRSD

WEATHER ROUNDUP FOR SOUTH DAKOTA
NATIONAL WEATHER SERVICE SIOUX FALLS SD
1000 AM CDT FRI JUL 29 2016

NOTE: "FAIR" INDICATES FEW OR NO CLOUDS BELOW 12,000 FEET WITH NO
SIGNIFICANT WEATHER AND/OR OBSTRUCTIONS TO VISIBILITY.


SDZ001>005-009-010-012>017-291600-
NORTHWEST AND NORTH CENTRAL SOUTH DAKOTA

CITY           SKY/WX    TMP DP  RH WIND       PRES   REMARKS
BUFFALO          N/A     62  59  90 S6        30.07R
FAITH            N/A     69  59  70 CALM      30.11S
MOBRIDGE       CLOUDY    73  61  65 VRB6      30.07R
$$

SDZ012>016-024>037-041>051-057-063-072>074-291600-
SOUTHWEST AND SOUTH CENTRAL SOUTH DAKOTA

CITY           SKY/WX    TMP DP  RH WIND       PRES   REMARKS
RAPID CTY ARPT MOSUNNY   67  58  72 S6        30.12S
PIERRE         CLOUDY    70  60  70 SW5       30.08S
CUSTER         SUNNY     64  53  67 VRB3      30.22S
ELLSWORTH AFB  SUNNY     69  59  68 S7        30.12
PHILIP         CLOUDY    62  62 100 SE3       30.11S FOG
PINE RIDGE     SUNNY     65  61  87 CALM      30.14S
WINNER         CLOUDY    69  63  81 E6        30.12R
$$

SDZ004>011-016>023-039-040-291600-
NORTHEAST SOUTH DAKOTA

CITY           SKY/WX    TMP DP  RH WIND       PRES   REMARKS
ABERDEEN       SUNNY     73  59  61 S3        30.10R
WATERTOWN      SUNNY     74  56  53 E6        30.11R
BROOKINGS      SUNNY     70  56  61 NE6       30.11R
SISSETON         N/A     70  63  78 VRB3      30.09R
$$

SDZ017-020-022-023-036>040-048>070-291600-
SOUTHEAST SOUTH DAKOTA

CITY           SKY/WX    TMP DP  RH WIND       PRES   REMARKS
SIOUX FALLS    MOSUNNY   71  58  63 NE7       30.10S
HURON          MOSUNNY   71  57  61 CALM      30.10S
CHAMBERLAIN    MOSUNNY   72  66  80 CALM      30.11F
MITCHELL       SUNNY     72  59  63 E5        30.11S
YANKTON        MOSUNNY   70  57  64 E7        30.09S
$$

ABBREVIATIONS USED IN REMARKS
   TC - TEMPERATURE IN CELSIUS
  WCI - WIND CHILL INDEX
   HX - HEAT INDEX
  VSB - VISIBILITY





USA.gov is the U.S. government's official web portal to all federal, state and local government web resources and services.